Regional Weather Roundup
Issued by NWS

Home | Current Version | Previous Version | Graphics & Text | Print | Product List | Glossary On
Versions: 1 2 3 4 5 6 7 8 9 10 11 12 13 14 15 16 17 18 19 20 21 22 23 24 25 26 27 28 29 30 31 32 33 34 35 36 37 38 39 40 41 42 43 44 45 46 47 48 49 50
000
ASUS43 KIND 221909
RWRIN

WEATHER ROUNDUP FOR INDIANA
NATIONAL WEATHER SERVICE INDIANAPOLIS IN
300 PM EDT SAT JUL 22 2017

NOTE: "FAIR" INDICATES FEW OR NO CLOUDS BELOW 12,000 FEET WITH NO
SIGNIFICANT WEATHER AND/OR OBSTRUCTIONS TO VISIBILITY.

* - STATION DOES NOT REPORT WEATHER SUCH AS PRECIPITATION OR FOG.

+ - STATION NOT QUALITY CONTROLLED BY THE NATIONAL WEATHER SERVICE.
    USE DATA WITH CAUTION...ESPECIALLY DEWPOINT AND RELATIVE
    HUMIDITY OBSERVATIONS.

INZ001>003-010>013-019-020-222000-
NORTHWEST INDIANA

CITY           SKY/WX    TMP DP  RH WIND       PRES   REMARKS
GARY /AIRPORT/ PTSUNNY   81  70  69 NE6       29.84F
KNOX *+        CLOUDY    81  70  69 W5        29.82F
LA PORTE +     CLOUDY    81  71  71 NW6       29.84S
MICHIGAN CITY+ PTSUNNY   77  70  78 N7        29.84S
MONTICELLO +   CLOUDY    80  73  77 NW7       29.83S
RENSSELAER +   MOSUNNY   79  70  73 W7        29.83F
VALPARAISO     MOSUNNY   85  71  63 N6        29.83F

$$

LMZ046-743>745-222000-
SOUTHERN LAKE MICHIGAN

STATION/POSITION TIME  TEMP    WIND        PRES    WAVE
                       AIR SEA DIR/SP/G            HT
                 (UTC) (F)     (DEG/KT/KT) (MB)    (FT)
BURNS HARBOR     1840   73      20/  6/  8 1010.8F
MICHIGAN CITY    1840   74     350/ 13/ 14   N/A
5NW MICH CITY    1900   73 75   10/  8/ 10   N/A     1

$$

INZ004-005-014>016-021>024-222000-
NORTH CENTRAL INDIANA

CITY           SKY/WX    TMP DP  RH WIND       PRES   REMARKS
ELKHART        MOSUNNY   82  68  61 NW12      29.82S
GOSHEN         PTSUNNY   84  69  60 W8G16     29.81F
LOGANSPORT +   CLOUDY    79  70  73 W6G20     29.83F
PERU/GRISSOM   CLOUDY    80  71  74 NW7       29.82F
ROCHESTER +    PTSUNNY   82  70  65 NW6       29.83F
SOUTH BEND     CLOUDY    82  69  64 NW14      29.83R
WARSAW +       CLOUDY    82  70  65 W7        29.82S

$$

INZ006>009-017-018-025>027-222000-
NORTHEAST INDIANA

CITY           SKY/WX    TMP DP  RH WIND       PRES   REMARKS
AUBURN +       PTSUNNY   82  68  61 W7        29.81F
FORT WAYNE     CLOUDY    81  70  69 W15       29.82F
HUNTINGTON +   PTSUNNY   80  71  74 W6        29.82F
KENDALLVILLE + PTSUNNY   81  71  73 W3        29.81F

$$

INZ028-029-035-036-043>045-051>053-222000-
WEST CENTRAL INDIANA

CITY           SKY/WX    TMP DP  RH WIND       PRES   REMARKS
GREENCASTLE +  CLOUDY    86  73  66 W5        29.84S
LAFAYETTE      PTSUNNY   82  73  74 NW12      29.82S
TERRE HAUTE    CLOUDY    90  74  59 W7        29.82R HX  99

$$

INZ030>032-037>040-046>048-054>057-064-065-222000-
CENTRAL INDIANA

CITY           SKY/WX    TMP DP  RH WIND       PRES   REMARKS
ANDERSON       MOSUNNY   84  72  65 MISG        N/A
CP ATTERBURY + CLOUDY    90  73  58 W10G16    29.83R HX  98
COLUMBUS       SUNNY     90  72  55 SW17      29.81R HX  96
FRANKFORT +    MOSUNNY   84  74  72 NW7       29.86R
GREENWOOD *+   PTSUNNY  N/A N/A N/A W8        29.84R
INDIANAPOLIS   CLOUDY    87  73  62 W10       29.83R
-EAGLE CREEK   CLOUDY    87  74  64 NW8       29.83R HX  95
KOKOMO +       CLOUDY    80  72  76 NW9       29.84F
MARION +       CLOUDY    81  72  74 NW8       29.84S
MT COMFORT *+  CLOUDY    86  75  70 NW3       29.82S HX  95
SHELBYVILLE    CLOUDY    89  75  63 W6        29.83R HX  99
ZIONSVILLE +   CLOUDY    83  74  73 W6        29.86R

$$

INZ033-034-041-042-049-050-058-059-222000-
EAST CENTRAL INDIANA

CITY           SKY/WX    TMP DP  RH WIND       PRES   REMARKS
MUNCIE         CLOUDY    85  75  72 N8        29.83S
RICHMOND +     CLOUDY    82  77  83 NW9       29.86R

$$

INZ060-061-067>069-081>083-085>088-222000-
SOUTHWEST INDIANA

CITY           SKY/WX    TMP DP  RH WIND       PRES   REMARKS
EVANSVILLE     MOSUNNY   97  72  44 S14       29.86F HX 105
HUNTINGBURG *+ SUNNY     93  76  57 SW17      29.84F HX 105

$$

INZ062-063-066-070>080-084-089>092-222000-
SOUTH CENTRAL AND SOUTHEAST INDIANA

CITY           SKY/WX    TMP DP  RH WIND       PRES   REMARKS
BEDFORD +      PTSUNNY   93  70  46 SW12G17   29.81R HX  99
BLOOMINGTON    MOSUNNY   94  71  47 W14       29.82R HX 101
MADISON *+     CLOUDY    90  72  55 S12       29.83R HX  96
NORTH VERNON + CLOUDY    88  73  62 S12G17    29.82R HX  96
SEYMOUR +      CLOUDY    90  75  62 SW10G17   29.79S HX 100

$$




USA.gov is the U.S. government's official web portal to all federal, state and local government web resources and services.